[TLELIST] Archives

 

[list_settings.list_name] Current TLEs

March 17th 2009 PDT

HST 1 20580U 90037B 09074.86639825 .00000320 00000-0 11884-4 0 3480 2 20580 028.4709 351.1611 0003467 031.6665 328.4137 15.00463353835826 ISS (ZARYA) 1 25544U 98067A 09075.15161696 .00010494 00000-0 84702-4 0 4680 2 25544 051.6397 063.5832 0009532 127.3042 332.0675 15.71485943591310 CXO 1 25867U 99040B 09071.29166667 +.00000067 +00000-0 +10000-3 0 03036 2 25867 065.0100 072.4001 7340142 276.5014 357.7930 00.37806584004641 ____________________________________________________________________ These 2-Line ...Continue Reading

[list_settings.list_name] Current TLEs

March 16th 2009 PDT

HST 1 20580U 90037B 09073.13699755 .00000318 00000-0 11729-4 0 3471 2 20580 028.4709 002.4384 0003471 013.3659 346.7015 15.00462805835564 ISS (ZARYA) 1 25544U 98067A 09073.50579640 .00008892 00000-0 72637-4 0 4570 2 25544 051.6396 072.0046 0009551 121.3983 020.8224 15.71444207591051 CXO 1 25867U 99040B 09071.29166667 +.00000067 +00000-0 +10000-3 0 03036 2 25867 065.0100 072.4001 7340142 276.5014 357.7930 00.37806584004641 ____________________________________________________________________ These 2-Line ...Continue Reading

[list_settings.list_name] Current TLEs

March 15th 2009 PDT

HST 1 20580U 90037B 09071.93972014 +.00000299 +00000-0 +10224-4 0 03476 2 20580 028.4710 010.2459 0003457 000.6795 359.3796 15.00462318835385 ISS (ZARYA) 1 25544U 98067A 09072.48742080 .00008454 00000-0 69351-4 0 4502 2 25544 051.6394 077.2140 0009583 118.0792 019.1424 15.71423025590896 CXO 1 25867U 99040B 09071.29166667 +.00000067 +00000-0 +10000-3 0 03036 2 25867 065.0100 072.4001 7340142 276.5014 357.7930 00.37806584004641 ____________________________________________________________________ These 2-Line ...Continue Reading

[list_settings.list_name] Current TLEs

March 14th 2009 PDT

HST 1 20580U 90037B 09070.94198851 +.00000291 +00000-0 +96365-5 0 03489 2 20580 028.4710 016.7521 0003453 350.1026 009.9493 15.00461980835232 ISS (ZARYA) 1 25544U 98067A 09072.16033821 .00008237 00000-0 67712-4 0 4488 2 25544 051.6394 078.8875 0009598 117.3060 328.3260 15.71416245590848 CXO 1 25867U 99040B 09071.29166667 +.00000067 +00000-0 +10000-3 0 03036 2 25867 065.0100 072.4001 7340142 276.5014 357.7930 00.37806584004641 ____________________________________________________________________ These 2-Line ...Continue Reading

[list_settings.list_name] Current TLEs

March 13th 2009 PDT

HST 1 20580U 90037B 09071.20805028 .00000300 00000-0 10377-4 0 3467 2 20580 028.4709 015.0171 0003460 352.9420 007.1125 15.00462137835270 ISS (ZARYA) 1 25544U 98067A 09070.38837942 .00007697 00000-0 63677-4 0 4357 2 25544 051.6394 087.9530 0009582 111.8389 022.9968 15.71382598590567 CXO 1 25867U 99040B 09066.00000000 +.00000054 +00000-0 +10000-3 0 03022 2 25867 064.9900 072.6194 7327426 276.5388 357.2991 00.37800396004621 ____________________________________________________________________ These 2-Line ...Continue Reading

[list_settings.list_name] Current TLEs

March 12th 2009 PDT

HST 1 20580U 90037B 09070.01077222 .00000281 00000-0 88313-5 0 3455 2 20580 028.4710 022.8246 0003454 340.0948 019.9504 15.00461642835099 ISS (ZARYA) 1 25544U 98067A 09 70.11022302 .00008250 00000-0 63109-4 0 4338 2 25544 051.6386 089.3765 0009498 111.6297 248.6246 15.71378409590524 CXO 1 25867U 99040B 09066.00000000 +.00000054 +00000-0 +10000-3 0 03022 2 25867 064.9900 072.6194 7327426 276.5388 357.2991 00.37800396004621 ____________________________________________________________________ These 2-Line ...Continue Reading

[list_settings.list_name] Current TLEs

March 11th 2009 PDT

HST 1 20580U 90037B 09067.28363784 +.00000286 +00000-0 +92327-5 0 03579 2 20580 028.4702 040.6086 0003476 310.7697 049.2589 15.00460957834680 ISS (ZARYA) 1 25544U 98067A 09069.43765634 .00007447 00000-0 61808-4 0 4301 2 25544 051.6399 092.8162 0009604 107.9537 045.0671 15.71365851590418 CXO 1 25867U 99040B 09066.00000000 +.00000054 +00000-0 +10000-3 0 03022 2 25867 064.9900 072.6194 7327426 276.5388 357.2991 00.37800396004621 ____________________________________________________________________ These 2-Line ...Continue Reading

[list_settings.list_name] Current TLEs

March 10th 2009 PDT

HST 1 20580U 90037B 09068.21485450 .00000289 00000-0 94681-5 0 3442 2 20580 028.4702 034.5363 0003472 320.7855 039.2482 15.00461213834826 ISS (ZARYA) 1 25544U 98067A 09068.15053568 .00007823 00000-0 64740-4 0 4211 2 25544 051.6400 099.3984 0009604 103.2330 323.8055 15.71346507590213 CXO 1 25867U 99040B 09066.00000000 +.00000054 +00000-0 +10000-3 0 03022 2 25867 064.9900 072.6194 7327426 276.5388 357.2991 00.37800396004621 ____________________________________________________________________ These 2-Line ...Continue Reading

[list_settings.list_name] Current TLEs

March 9th 2009 PDT

HST 1 20580U 90037B 09066.75151486 .00000304 00000-0 10604-4 0 3426 2 20580 028.4691 044.0811 0003504 305.4624 054.5647 15.00460917834606 ISS (ZARYA) 1 25544U 98067A 09066.86371528 .00009229 00000-0 75559-4 0 4128 2 25544 051.6404 105.9805 0009561 098.0292 244.8269 15.71330087590005 CXO 1 25867U 99040B 09066.00000000 +.00000054 +00000-0 +10000-3 0 03022 2 25867 064.9900 072.6194 7327426 276.5388 357.2991 00.37800396004621 ____________________________________________________________________ These 2-Line ...Continue Reading

[list_settings.list_name] Current TLEs

March 8th 2009 PDT

HST 1 20580U 90037B 09065.48772070 .00000304 00000-0 10617-4 0 3416 2 20580 028.4694 052.3284 0003658 288.8040 071.2146 15.00460602834411 ISS (ZARYA) 1 25544U 98067A 09065.55508613 .00009116 00000-0 74775-4 0 4045 2 25544 051.6404 112.6725 0009603 094.2088 041.0939 15.71304440589800 CXO 1 25867U 99040B 09066.00000000 +.00000054 +00000-0 +10000-3 0 03022 2 25867 064.9900 072.6194 7327426 276.5388 357.2991 00.37800396004621 ____________________________________________________________________ These 2-Line ...Continue Reading
  • This mailing list is a public mailing list - anyone may join or leave, at any time.
  • This mailing list is announce-only.

International Space Station (ISS) / Hubble Space Telescope (HST) / Chandra X-Ray Observatory Orbital Data via EMAIL

Privacy Policy:

Private list